Regional Weather Roundup
Issued by NWS

Home | Current Version | Previous Version | Text Only | Print | Product List | Glossary Off
Versions: 1 2 3 4 5 6 7 8 9 10 11 12 13 14 15 16 17 18 19 20 21 22 23 24 25 26 27 28 29 30 31 32 33 34 35 36 37 38 39 40 41 42 43 44 45 46 47 48 49 50

000
ASUS45 KCYS 291810
RWRWY

WYOMING REGIONAL WEATHER ROUNDUP
NATIONAL WEATHER SERVICE CHEYENNE WY
1100 AM MST THU JAN 29 2015

NOTE:  "FAIR" INDICATES FEW OR NO CLOUDS BELOW 12,000 FEET
WITH NO SIGNIFICANT WEATHER AND/OR OBSTRUCTIONS TO VISIBILITY.

WYZ001-291900-
YELLOWSTONE NATIONAL PARK

CITY           SKY/WX    TMP DP  RH WIND       PRES   REMARKS
LK YELLOWSTONE   N/A     17  17 100 CALM      30.44F
6HR MIN TEMP:  13; 6HR MAX TEMP:  18;

W YELLOWSTONE  NOT AVBL

$$
WYZ002>013-054>058-071-098>099-291900-
NORTHERN WYOMING

CITY           SKY/WX    TMP DP  RH WIND       PRES   REMARKS
JACKSON        PTSUNNY   27  21  80 CALM      30.46S
CODY           FAIR      39  23  52 SW12      30.39F WCI  32
GREYBULL       FOG       31  31 100 CALM      30.45F VSB<1/4
6HR MIN TEMP:  25; 6HR MAX TEMP:  31;

WORLAND        FAIR      31  28  89 CALM      30.43F
6HR MIN TEMP:  24; 6HR MAX TEMP:  34;

SHERIDAN       FAIR      38  25  59 CALM      30.41F
6HR MIN TEMP:  20; 6HR MAX TEMP:  39;

BUFFALO        FAIR      42  29  59 SE8       30.42S
6HR MIN TEMP:  26; 6HR MAX TEMP:  42;

GILLETTE       FAIR      41  20  43 SW6       30.44F
6HR MIN TEMP:  20; 6HR MAX TEMP:  41;

HULETT           N/A    N/A N/A N/A MISG        N/A
NEWCASTLE      FAIR      34  25  69 NW9       30.49S WCI  26

$$
WYZ014>020-022>026-101>103-291900-
CENTRAL WYOMING

CITY           SKY/WX    TMP DP  RH WIND       PRES   REMARKS
BIG PINEY      FAIR      27  21  78 E7        30.45F WCI  19
6HR MIN TEMP:  11; 6HR MAX TEMP:  27;

PINEDALE       CLOUDY    25  23  93 NW3       30.45F
DUBOIS         FAIR      28  18  64 N3        30.41S
LANDER         FAIR      35  28  75 CALM      30.42F
6HR MIN TEMP:  27; 6HR MAX TEMP:  36;

RIVERTON       FAIR      36  30  79 CALM      30.44S
6HR MIN TEMP:  26; 6HR MAX TEMP:  38;

CASPER         FAIR      37  30  75 S3        30.45S
6HR MIN TEMP:  21; 6HR MAX TEMP:  37;

DOUGLAS        FAIR      40  32  73 CALM      30.47F
6HR MIN TEMP:  22; 6HR MAX TEMP:  41;


$$
WYZ021-027>030-104>119-291900-
SOUTHERN WYOMING

CITY           SKY/WX    TMP DP  RH WIND       PRES   REMARKS
EVANSTON       PTSUNNY   31  28  89 NE5       30.39S FOG     WCI  26
6HR MIN TEMP:  24; 6HR MAX TEMP:  31;

KEMMERER       CLOUDY    32  30  93 NE10G20   30.41S WCI  24
FORT BRIDGER   CLOUDY    30  30 100 NE5       30.44S FOG     WCI  25
ROCK SPRINGS   CLOUDY    28  28 100 E12       30.43S FOG     WCI  18
6HR MIN TEMP:  28; 6HR MAX TEMP:  31;

DIXON          FAIR      38  31  77 W3        30.44S
RAWLINS        FAIR      36  27  69 E6        30.44S WCI  31
6HR MIN TEMP:  27; 6HR MAX TEMP:  36;

SARATOGA       FAIR      37  30  75 CALM      30.44S
LARAMIE        FAIR      31  26  82 VRB3      30.44F
6HR MIN TEMP:  22; 6HR MAX TEMP:  31;

CHEYENNE       FAIR      40  22  48 SW7       30.47S
6HR MIN TEMP:  28; 6HR MAX TEMP:  42;

TORRINGTON     FAIR      42  21  43 VRB6      30.49F
6HR MIN TEMP:  27; 6HR MAX TEMP:  42;

PINE BLUFFS    FAIR      41  18  38 N7        30.49F

$$


USA.gov is the U.S. government's official web portal to all federal, state and local government web resources and services.